This is the latest recevied weather packets stored in our database for station/object N2WH. If no packets are shown the sender has not sent any weather packets the latest 10 day(s).
| Time | Temp. | Humidity | Pressure | Rain* | Wind** | Luminosity | Snow |
|---|---|---|---|---|---|---|---|
| 1777962486 | 13.89° C | 71% | 1011 hPa | 0 mm | - | 0 W/m² | - |
| 1777962184 | 13.33° C | 71% | 1011 hPa | 0 mm | - | 0 W/m² | - |
| 1777961881 | 13.33° C | 71% | 1011 hPa | 0 mm | - | 0 W/m² | - |
| 1777961579 | 13.33° C | 71% | 1011.2 hPa | 0 mm | - | 0 W/m² | - |
| 1777961276 | 12.78° C | 73% | 1011 hPa | 0 mm | - | 0 W/m² | - |
| 1777960973 | 12.22° C | 74% | 1011.2 hPa | 0 mm | - | 0 W/m² | - |
| 1777960668 | 12.22° C | 73% | 1011.4 hPa | 0 mm | - | 0 W/m² | - |
| 1777960365 | 12.78° C | 72% | 1011.3 hPa | 0 mm | - | 0 W/m² | - |
| 1777960062 | 12.78° C | 72% | 1011.3 hPa | 0 mm | - | 0 W/m² | - |
| 1777959760 | 12.78° C | 71% | 1011 hPa | 0 mm | - | 0 W/m² | - |
| 1777959458 | 12.78° C | 71% | 1011.2 hPa | 0 mm | - | 0 W/m² | - |
| 1777959154 | 12.78° C | 70% | 1011.3 hPa | 0 mm | - | 0 W/m² | - |
| 1777958852 | 12.78° C | 70% | 1011.3 hPa | 0 mm | - | 0 W/m² | - |
| 1777958548 | 12.78° C | 70% | 1011.3 hPa | 0 mm | - | 0 W/m² | - |
| 1777958245 | 12.78° C | 69% | 1011.5 hPa | 0 mm | - | 0 W/m² | - |
| 1777957943 | 12.78° C | 68% | 1011.5 hPa | 0 mm | - | 0 W/m² | - |
| 1777957641 | 13.33° C | 67% | 1011.6 hPa | 0 mm | - | 0 W/m² | - |
| 1777957339 | 13.33° C | 66% | 1011.4 hPa | 0 mm | - | 0 W/m² | - |
| 1777957034 | 13.33° C | 66% | 1011.6 hPa | 0 mm | - | 0 W/m² | - |
| 1777956732 | 13.33° C | 65% | 1011.6 hPa | 0 mm | - | 0 W/m² | - |
| 1777956429 | 13.89° C | 64% | 1011.5 hPa | 0 mm | - | 0 W/m² | - |
| 1777956125 | 13.89° C | 64% | 1011.4 hPa | 0 mm | - | 0 W/m² | - |
| 1777955822 | 13.89° C | 63% | 1011.5 hPa | 0 mm | - | 0 W/m² | - |
| 1777955518 | 13.89° C | 63% | 1011.5 hPa | 0 mm | - | 0 W/m² | - |
| 1777955214 | 13.89° C | 62% | 1011.5 hPa | 0 mm | - | 0 W/m² | - |
* Rain latest hour (hover to see other rain measurements)
** Current wind speed in m/s (hover to see current wind gust speed)